Flag for Germany Weather past 2 weeks in Achim, Lower Saxony, Germany

59 °F


Feels Like: 58 °F
Forecast: 57 / 63 °F
Wind: 7 mph from East

Location: Bremen Airport

Current Time: Oct 7, 2015 at 1:42:03 AM

Latest Report: Oct 7, 2015 at 1:20 AM

Visibility: 2 mi

Pressure: 29.71 "Hg

Humidity: 94%

Dew point: 57 °F

Location of AchimLocation

Historic Weather in Achim — Graph


Achim temperature yesterday

Maximum temperature yesterday: 61 °F (at 5:20 PM)
Minimum temperature yesterday: 54 °F (at 6:20 AM)
Average temperature yesterday: 57 °F

Past Weeks' High & Low Weather Summary

High64 °F (Oct 3, 2:20 PM)100% (Sep 22, 8:20 PM)30.72 "Hg (Sep 22, 8:20 PM)
Low37 °F (Oct 2, 2:50 AM)48% (Oct 1, 1:20 PM)29.53 "Hg (Sep 22, 3:20 PM)
Average53 °F85%30.18 "Hg
* Reported Sep 22 12:20 AM — Oct 7 12:50 AM, Achim, Weather by CustomWeather, © 2015

Note: Actual official high and low records may vary slightly from our data, if they occured in-between our weather recording intervals... More about our weather records


Achim weather history for previous 24 hours

Time TempWeatherWind HumidityBarometerVisibility
12:50 AM
Wed, Oct 7
59 °FLight rain. Fog.8 mph94%29.71 "Hg2 mi
11:50 PM
Tue, Oct 6
59 °FLight rain. Mostly cloudy.8 mph94%29.71 "Hg4 mi
11:20 PM59 °FLight rain. Passing clouds.10 mph94%29.71 "Hg5 mi
10:50 PM59 °FClear.9 mph94%29.71 "Hg10 mi
10:20 PM59 °FClear.12 mph94%29.71 "Hg10 mi
9:50 PM59 °FClear.10 mph94%29.71 "Hg10 mi
9:20 PM59 °FClear.10 mph94%29.71 "Hg10 mi
8:50 PM61 °FClear.9 mph88%29.71 "Hg10 mi
8:20 PM61 °FPassing clouds.9 mph88%29.68 "HgN/A
7:50 PM61 °FPassing clouds.9 mph88%29.68 "HgN/A
7:20 PM61 °FPartly sunny.9 mph88%29.68 "HgN/A
6:50 PM61 °FBroken clouds.8 mph94%29.68 "HgN/A
6:20 PM61 °FPartly sunny.8 mph94%29.65 "HgN/A
5:50 PM61 °FPartly sunny.7 mph88%29.65 "HgN/A
5:20 PM61 °FPartly sunny.9 mph88%29.65 "Hg5 mi
4:50 PM59 °FPartly sunny.9 mph94%29.65 "Hg6 mi
4:20 PM59 °FBroken clouds.10 mph94%29.65 "Hg5 mi
3:50 PM59 °FBroken clouds.8 mph94%29.65 "Hg5 mi
3:20 PM59 °FBroken clouds.12 mph94%29.65 "Hg4 mi
2:50 PM57 °FPartly sunny.10 mph100%29.65 "Hg4 mi
2:20 PM57 °FDrizzle. Partly sunny.13 mph94%29.65 "Hg3 mi
1:50 PM57 °FDrizzle. Partly sunny.13 mph94%29.65 "Hg1 mi
1:20 PM57 °FDrizzle. Partly sunny.12 mph94%29.65 "Hg2 mi
12:50 PM55 °FDrizzle. Partly sunny.14 mph100%29.65 "Hg1 mi
12:20 PM55 °FDrizzle. Partly sunny.16 mph94%29.65 "Hg3 mi
11:50 AM55 °FDrizzle. Partly sunny.15 mph94%29.65 "Hg2 mi
11:20 AM55 °FDrizzle. Partly sunny.15 mph94%29.65 "Hg1 mi
10:50 AM55 °FDrizzle. Partly sunny.14 mph94%29.65 "Hg1 mi
10:20 AM55 °FDrizzle. Partly sunny.13 mph94%29.65 "Hg2 mi
9:50 AM55 °FDrizzle. Broken clouds.13 mph88%29.65 "Hg1 mi
9:20 AM55 °FLight rain. Partly sunny.13 mph88%29.68 "Hg4 mi
8:50 AM55 °FLight rain. Partly sunny.13 mph88%29.68 "Hg6 mi
8:20 AM55 °FLight rain. Passing clouds.13 mph88%29.68 "Hg6 mi
7:50 AM54 °FLight rain. Passing clouds.12 mph94%29.68 "Hg6 mi
7:20 AM55 °FLight rain. Passing clouds.10 mph88%29.71 "HgN/A
6:20 AM54 °FLight rain. Partly cloudy.12 mph88%29.71 "HgN/A
5:50 AM55 °FLight rain. Clear.10 mph82%29.71 "HgN/A
5:20 AM55 °FPassing clouds.12 mph77%29.71 "HgN/A
4:50 AM55 °FClear.9 mph77%29.74 "Hg10 mi
4:20 AM55 °FClear.10 mph77%29.74 "Hg10 mi
3:50 AM55 °FClear.12 mph77%29.74 "Hg10 mi
3:20 AM57 °FClear.12 mph72%29.77 "Hg10 mi
2:50 AM57 °FClear.12 mph72%29.77 "Hg10 mi
2:20 AM57 °FClear.12 mph72%29.77 "Hg10 mi
1:50 AM57 °FClear.12 mph72%29.80 "Hg10 mi
1:20 AM57 °FClear.10 mph72%29.80 "Hg10 mi
Weather by CustomWeather, © 2015

See weather overviewHow to use our weather pages